Time,TemperatureF,DewpointF,PressureIn,WindDirection,WindDirectionDegrees,WindSpeedMPH,WindSpeedGustMPH,Humidity,HourlyPrecipIn,Conditions,Clouds,dailyrainin,SoftwareType,DateUTC
2013-03-10 00:00:00,26.2,26.0,30.34,ENE,70,0.4,1.2,99,0.00,CLR,,0.79,WeatherDisplay:10.37,2013-03-10 05:00:00,
2013-03-10 00:03:00,26.2,25.7,30.34,ENE,70,0.0,0.0,98,0.00,RA,,0.00,WeatherDisplay:10.37,2013-03-10 05:03:00,
2013-03-10 00:09:00,26.5,26.3,30.34,ENE,70,0.0,0.0,99,0.00,RA,,0.00,WeatherDisplay:10.37,2013-03-10 05:09:00,
2013-03-10 00:14:00,26.6,26.4,30.35,ENE,70,0.0,0.0,99,0.00,CLR,,0.00,WeatherDisplay:10.37,2013-03-10 05:14:00,
2013-03-10 00:19:00,26.5,26.0,30.35,ENE,70,0.0,0.0,98,0.00,CLR,,0.00,WeatherDisplay:10.37,2013-03-10 05:19:00,
2013-03-10 00:24:00,26.4,25.9,30.35,ENE,70,1.0,2.3,98,0.00,CLR,,0.00,WeatherDisplay:10.37,2013-03-10 05:24:00,
2013-03-10 00:30:00,26.5,26.0,30.35,ENE,70,0.6,1.2,98,0.00,CLR,,0.00,WeatherDisplay:10.37,2013-03-10 05:30:00,
2013-03-10 00:35:00,26.5,26.0,30.35,ENE,70,0.2,2.3,98,0.00,CLR,,0.00,WeatherDisplay:10.37,2013-03-10 05:35:00,
2013-03-10 00:40:00,26.5,26.0,30.35,ENE,70,0.2,2.0,98,0.00,CLR,,0.00,WeatherDisplay:10.37,2013-03-10 05:40:00,
2013-03-10 00:45:00,26.5,26.0,30.35,ENE,70,0.0,1.2,98,0.00,CLR,,0.00,WeatherDisplay:10.37,2013-03-10 05:45:00,
2013-03-10 00:50:00,26.4,25.9,30.36,ENE,70,0.0,1.0,98,0.00,CLR,CLR,0.00,WeatherDisplay:10.37,2013-03-10 05:50:00,
2013-03-10 00:55:00,26.4,25.7,30.36,ENE,70,0.9,2.3,97,0.00,CLR,,0.00,WeatherDisplay:10.37,2013-03-10 05:55:00,
2013-03-10 01:00:00,26.5,26.0,30.36,ENE,70,1.0,2.0,98,0.00,CLR,CLR,0.00,WeatherDisplay:10.37,2013-03-10 06:00:00,
2013-03-10 01:05:00,26.6,26.1,30.36,ENE,70,1.0,3.0,98,0.00,CLR,CLR,0.00,WeatherDisplay:10.37,2013-03-10 06:05:00,
2013-03-10 01:10:00,26.5,25.8,30.36,ENE,70,0.0,2.0,97,0.00,CLR,CLR,0.00,WeatherDisplay:10.37,2013-03-10 06:10:00,
2013-03-10 01:15:00,26.4,25.9,30.36,ENE,70,0.0,0.0,98,0.00,CLR,CLR,0.00,WeatherDisplay:10.37,2013-03-10 06:15:00,
2013-03-10 01:20:00,26.4,25.7,30.36,ENE,70,0.0,2.0,97,0.00,CLR,CLR,0.00,WeatherDisplay:10.37,2013-03-10 06:20:00,
2013-03-10 01:25:00,26.3,25.6,30.36,ENE,70,0.2,1.2,97,0.00,CLR,,0.00,WeatherDisplay:10.37,2013-03-10 06:25:00,
2013-03-10 01:30:00,26.2,25.5,30.36,ENE,70,0.0,2.0,97,0.00,CLR,CLR,0.00,WeatherDisplay:10.37,2013-03-10 06:30:00,
2013-03-10 01:35:00,26.2,25.5,30.36,ENE,70,1.0,2.3,97,0.00,CLR,,0.00,WeatherDisplay:10.37,2013-03-10 06:35:00,
2013-03-10 01:40:00,26.2,25.5,30.36,ENE,70,0.0,2.0,97,0.00,CLR,CLR,0.00,WeatherDisplay:10.37,2013-03-10 06:40:00,
2013-03-10 01:45:00,26.1,25.4,30.36,ENE,70,0.0,1.0,97,0.00,CLR,CLR,0.00,WeatherDisplay:10.37,2013-03-10 06:45:00,
2013-03-10 01:50:00,26.0,25.0,30.36,ENE,70,0.0,2.0,96,0.00,CLR,CLR,0.00,WeatherDisplay:10.37,2013-03-10 06:50:00,
2013-03-10 01:55:00,26.0,25.3,30.36,ENE,70,0.3,1.2,97,0.00,CLR,,0.00,WeatherDisplay:10.37,2013-03-10 06:55:00,
2013-03-10 03:00:00,25.9,25.2,30.36,ENE,70,0.0,0.0,97,0.00,CLR,,0.00,WeatherDisplay:10.37,2013-03-10 07:00:00,
2013-03-10 03:06:00,25.8,24.8,30.35,ENE,70,0.3,1.2,96,0.00,CLR,,0.00,WeatherDisplay:10.37,2013-03-10 07:06:00,
2013-03-10 03:11:00,25.9,25.2,30.36,ENE,70,0.9,2.0,97,0.00,CLR,,0.00,WeatherDisplay:10.37,2013-03-10 07:11:00,
2013-03-10 03:16:00,26.0,25.3,30.35,NNE,22,1.1,3.5,97,0.00,CLR,,0.00,WeatherDisplay:10.37,2013-03-10 07:16:00,
2013-03-10 03:21:00,26.0,25.3,30.35,NNE,22,0.3,2.3,97,0.00,CLR,,0.00,WeatherDisplay:10.37,2013-03-10 07:21:00,
2013-03-10 03:27:00,26.1,25.4,30.35,NNE,22,1.0,2.3,97,0.00,CLR,,0.00,WeatherDisplay:10.37,2013-03-10 07:27:00,
2013-03-10 03:32:00,26.1,25.4,30.35,NNE,21,0.8,2.3,97,0.00,CLR,,0.00,WeatherDisplay:10.37,2013-03-10 07:32:00,
2013-03-10 03:37:00,26.1,25.4,30.35,NNE,21,0.8,2.3,97,0.00,CLR,,0.00,WeatherDisplay:10.37,2013-03-10 07:37:00,
2013-03-10 03:42:00,26.1,25.4,30.35,NNE,21,1.5,3.5,97,0.00,CLR,,0.00,WeatherDisplay:10.37,2013-03-10 07:42:00,
2013-03-10 03:48:00,26.1,25.1,30.35,NNE,21,0.7,2.3,96,0.00,CLR,,0.00,WeatherDisplay:10.37,2013-03-10 07:48:00,
2013-03-10 03:53:00,26.1,25.4,30.36,NNE,21,0.9,2.3,97,0.00,CLR,,0.00,WeatherDisplay:10.37,2013-03-10 07:53:00,
2013-03-10 03:58:00,26.1,25.4,30.36,NNE,21,0.4,2.0,97,0.00,CLR,,0.00,WeatherDisplay:10.37,2013-03-10 07:58:00,
2013-03-10 04:03:00,26.0,25.3,30.36,NNE,21,0.5,2.3,97,0.00,CLR,,0.00,WeatherDisplay:10.37,2013-03-10 08:03:00,
2013-03-10 04:08:00,26.1,25.1,30.36,NNE,21,0.8,1.2,96,0.00,CLR,,0.00,WeatherDisplay:10.37,2013-03-10 08:08:00,
2013-03-10 04:14:00,26.1,25.4,30.36,NNE,21,0.1,1.2,97,0.00,CLR,,0.00,WeatherDisplay:10.37,2013-03-10 08:14:00,
2013-03-10 04:19:00,26.1,25.4,30.36,NNE,21,0.0,2.3,97,0.00,CLR,,0.00,WeatherDisplay:10.37,2013-03-10 08:19:00,
2013-03-10 04:24:00,26.1,25.4,30.36,NNE,21,0.2,1.0,97,0.00,CLR,,0.00,WeatherDisplay:10.37,2013-03-10 08:24:00,
2013-03-10 04:29:00,26.2,25.5,30.36,NNE,21,0.0,2.3,97,0.00,CLR,,0.00,WeatherDisplay:10.37,2013-03-10 08:29:00,
2013-03-10 04:35:00,26.2,25.5,30.36,NNE,21,0.3,2.3,97,0.00,CLR,,0.00,WeatherDisplay:10.37,2013-03-10 08:35:00,
2013-03-10 04:40:00,26.1,25.4,30.36,NNE,21,1.2,2.0,97,0.00,CLR,,0.00,WeatherDisplay:10.37,2013-03-10 08:40:00,
2013-03-10 04:45:00,26.1,25.4,30.36,NNE,21,0.0,1.2,97,0.00,CLR,,0.00,WeatherDisplay:10.37,2013-03-10 08:45:00,
2013-03-10 04:50:00,26.0,25.3,30.36,NNE,21,0.0,0.0,97,0.00,CLR,,0.00,WeatherDisplay:10.37,2013-03-10 08:50:00,
2013-03-10 04:55:00,25.9,24.9,30.36,NNE,21,0.0,2.0,96,0.00,CLR,CLR,0.00,WeatherDisplay:10.37,2013-03-10 08:55:00,
2013-03-10 05:00:00,25.7,24.7,30.36,NNE,21,0.0,0.0,96,0.00,CLR,CLR,0.00,WeatherDisplay:10.37,2013-03-10 09:00:00,
2013-03-10 05:05:00,25.4,24.4,30.36,NNE,21,0.0,0.0,96,0.00,CLR,CLR,0.00,WeatherDisplay:10.37,2013-03-10 09:05:00,
2013-03-10 05:10:00,25.2,24.2,30.36,NNE,21,0.0,0.0,96,0.00,CLR,CLR,0.00,WeatherDisplay:10.37,2013-03-10 09:10:00,
2013-03-10 05:15:00,25.2,24.2,30.36,NNE,21,1.0,2.0,96,0.00,CLR,CLR,0.00,WeatherDisplay:10.37,2013-03-10 09:15:00,
2013-03-10 05:20:00,25.4,24.7,30.36,NNE,21,0.9,2.3,97,0.00,CLR,,0.00,WeatherDisplay:10.37,2013-03-10 09:20:00,
2013-03-10 05:25:00,25.5,24.8,30.36,NNE,21,0.0,2.0,97,0.00,CLR,CLR,0.00,WeatherDisplay:10.37,2013-03-10 09:25:00,
2013-03-10 05:30:00,25.5,24.8,30.36,NNE,21,1.0,1.0,97,0.00,CLR,CLR,0.00,WeatherDisplay:10.37,2013-03-10 09:30:00,
2013-03-10 05:35:00,25.4,24.7,30.36,NNE,21,0.0,2.3,97,0.00,CLR,,0.00,WeatherDisplay:10.37,2013-03-10 09:35:00,
2013-03-10 05:41:00,25.3,24.6,30.36,NNE,21,0.0,0.0,97,0.00,CLR,,0.00,WeatherDisplay:10.37,2013-03-10 09:41:00,
2013-03-10 05:46:00,25.2,24.5,30.36,NNE,21,0.3,1.2,97,0.00,CLR,,0.00,WeatherDisplay:10.37,2013-03-10 09:46:00,
2013-03-10 05:51:00,25.2,24.2,30.36,NNE,21,0.5,1.2,96,0.00,CLR,,0.00,WeatherDisplay:10.37,2013-03-10 09:51:00,
2013-03-10 05:56:00,25.1,24.4,30.36,NNE,21,1.0,2.3,97,0.00,CLR,,0.00,WeatherDisplay:10.37,2013-03-10 09:56:00,
2013-03-10 06:02:00,25.2,24.5,30.36,NNE,21,0.6,2.3,97,0.00,CLR,,0.00,WeatherDisplay:10.37,2013-03-10 10:02:00,
2013-03-10 06:07:00,25.2,24.5,30.37,NNE,21,0.3,2.3,97,0.00,CLR,,0.00,WeatherDisplay:10.37,2013-03-10 10:07:00,
2013-03-10 06:12:00,25.3,24.6,30.37,NNE,21,1.0,2.3,97,0.00,CLR,,0.00,WeatherDisplay:10.37,2013-03-10 10:12:00,
2013-03-10 06:17:00,25.3,24.6,30.37,NNE,21,0.1,1.2,97,0.00,CLR,,0.00,WeatherDisplay:10.37,2013-03-10 10:17:00,
2013-03-10 06:23:00,25.1,24.4,30.37,NNE,21,1.2,2.3,97,0.00,CLR,,0.00,WeatherDisplay:10.37,2013-03-10 10:23:00,
2013-03-10 06:28:00,25.0,24.3,30.37,NNE,21,0.0,0.0,97,0.00,CLR,,0.00,WeatherDisplay:10.37,2013-03-10 10:28:00,
2013-03-10 06:33:00,24.7,23.7,30.37,NNE,21,0.0,0.0,96,0.00,CLR,,0.00,WeatherDisplay:10.37,2013-03-10 10:33:00,
2013-03-10 06:38:00,24.5,23.5,30.37,NNE,21,0.0,0.0,96,0.00,CLR,,0.00,WeatherDisplay:10.37,2013-03-10 10:38:00,
2013-03-10 06:44:00,24.2,23.2,30.37,NNE,21,0.0,0.0,96,0.00,CLR,,0.00,WeatherDisplay:10.37,2013-03-10 10:44:00,
2013-03-10 06:49:00,23.9,22.9,30.37,NNE,21,0.0,0.0,96,0.00,CLR,,0.00,WeatherDisplay:10.37,2013-03-10 10:49:00,
2013-03-10 06:54:00,23.9,23.2,30.37,NNE,21,0.0,0.0,97,0.00,CLR,,0.00,WeatherDisplay:10.37,2013-03-10 10:54:00,
2013-03-10 06:59:00,23.7,23.0,30.37,NNE,21,1.1,2.3,97,0.00,CLR,,0.00,WeatherDisplay:10.37,2013-03-10 10:59:00,
2013-03-10 07:05:00,23.7,23.0,30.37,NNE,21,0.0,0.0,97,0.00,CLR,,0.00,WeatherDisplay:10.37,2013-03-10 11:05:00,
2013-03-10 07:10:00,23.7,23.0,30.37,NNE,21,0.0,0.0,97,0.00,CLR,,0.00,WeatherDisplay:10.37,2013-03-10 11:10:00,
2013-03-10 07:15:00,23.7,23.0,30.37,NNE,21,0.0,0.0,97,0.00,CLR,,0.00,WeatherDisplay:10.37,2013-03-10 11:15:00,
2013-03-10 07:20:00,23.8,23.1,30.37,NNE,21,0.0,3.0,97,0.00,CLR,CLR,0.00,WeatherDisplay:10.37,2013-03-10 11:20:00,
2013-03-10 07:25:00,24.1,23.4,30.37,North,8,0.0,4.0,97,0.00,CLR,CLR,0.00,WeatherDisplay:10.37,2013-03-10 11:25:00,
2013-03-10 07:30:00,24.5,24.0,30.37,North,0,0.0,2.0,98,0.00,CLR,CLR,0.00,WeatherDisplay:10.37,2013-03-10 11:30:00,
2013-03-10 07:35:00,24.9,24.4,30.38,North,0,0.0,0.0,98,0.00,CLR,CLR,0.00,WeatherDisplay:10.37,2013-03-10 11:35:00,
2013-03-10 07:40:00,25.3,25.1,30.38,North,0,1.0,2.0,99,0.00,CLR,CLR,0.00,WeatherDisplay:10.37,2013-03-10 11:40:00,
2013-03-10 07:45:00,26.1,25.9,30.38,North,0,1.4,2.3,99,0.00,CLR,,0.00,WeatherDisplay:10.37,2013-03-10 11:45:00,
2013-03-10 07:51:00,26.8,26.8,30.39,North,0,1.8,3.5,100,0.00,,,0.00,WeatherDisplay:10.37,2013-03-10 11:51:00,
2013-03-10 07:56:00,27.5,27.5,30.39,North,0,0.3,3.0,100,0.00,,,0.00,WeatherDisplay:10.37,2013-03-10 11:56:00,
2013-03-10 08:01:00,28.0,28.0,30.39,North,0,1.4,3.5,100,0.00,,,0.00,WeatherDisplay:10.37,2013-03-10 12:01:00,
2013-03-10 08:06:00,28.4,28.4,30.39,North,0,0.2,1.2,100,0.00,,,0.00,WeatherDisplay:10.37,2013-03-10 12:06:00,
2013-03-10 08:12:00,28.7,28.7,30.39,North,0,0.5,1.2,100,0.00,,,0.00,WeatherDisplay:10.37,2013-03-10 12:12:00,
2013-03-10 08:17:00,29.0,29.0,30.39,North,0,0.6,2.3,100,0.00,,,0.00,WeatherDisplay:10.37,2013-03-10 12:17:00,
2013-03-10 08:22:00,29.3,29.3,30.39,North,0,0.4,2.3,100,0.00,,,0.00,WeatherDisplay:10.37,2013-03-10 12:22:00,
2013-03-10 08:27:00,29.7,29.7,30.39,North,0,0.2,2.3,100,0.00,,,0.00,WeatherDisplay:10.37,2013-03-10 12:27:00,
2013-03-10 08:32:00,30.3,30.3,30.39,North,0,0.0,0.0,100,0.00,,,0.00,WeatherDisplay:10.37,2013-03-10 12:32:00,
2013-03-10 08:38:00,30.8,30.8,30.40,North,0,0.5,2.3,100,0.00,,,0.00,WeatherDisplay:10.37,2013-03-10 12:38:00,
2013-03-10 08:43:00,31.2,31.2,30.40,North,0,0.0,1.2,100,0.00,,,0.00,WeatherDisplay:10.37,2013-03-10 12:43:00,
2013-03-10 08:48:00,31.6,31.6,30.40,North,0,0.7,2.3,100,0.00,,,0.00,WeatherDisplay:10.37,2013-03-10 12:48:00,
2013-03-10 08:54:00,32.1,32.1,30.40,North,0,1.0,3.5,100,0.00,,,0.00,WeatherDisplay:10.37,2013-03-10 12:54:00,
2013-03-10 08:59:00,32.5,32.5,30.40,North,0,0.0,0.0,100,0.00,,,0.00,WeatherDisplay:10.37,2013-03-10 12:59:00,
2013-03-10 09:04:00,33.0,33.0,30.40,North,0,0.9,3.5,100,0.00,,,0.00,WeatherDisplay:10.37,2013-03-10 13:04:00,
2013-03-10 09:09:00,33.4,33.4,30.40,NNE,12,3.6,5.8,100,0.00,,,0.00,WeatherDisplay:10.37,2013-03-10 13:09:00,
2013-03-10 09:14:00,33.9,33.9,30.40,NW,323,0.9,3.5,100,0.00,,,0.00,WeatherDisplay:10.37,2013-03-10 13:14:00,
2013-03-10 09:20:00,34.4,34.4,30.40,NNE,14,2.1,3.5,100,0.00,,,0.00,WeatherDisplay:10.37,2013-03-10 13:20:00,
2013-03-10 09:25:00,35.0,35.0,30.40,NNE,14,1.2,3.5,100,0.01,RA,,0.01,WeatherDisplay:10.37,2013-03-10 13:25:00,
2013-03-10 09:30:00,35.7,35.7,30.40,NNE,14,1.4,3.5,100,0.01,RA,,0.01,WeatherDisplay:10.37,2013-03-10 13:30:00,
2013-03-10 09:35:00,36.2,36.2,30.40,NNE,14,1.0,3.0,100,0.00,CLR,CLR,0.01,WeatherDisplay:10.37,2013-03-10 13:35:00,
2013-03-10 09:40:00,36.8,36.8,30.40,North,8,2.0,3.0,100,0.00,CLR,CLR,0.01,WeatherDisplay:10.37,2013-03-10 13:40:00,
2013-03-10 09:45:00,37.1,37.1,30.40,North,356,2.0,5.0,100,0.00,CLR,CLR,0.01,WeatherDisplay:10.37,2013-03-10 13:45:00,
2013-03-10 09:50:00,37.4,37.4,30.40,North,355,1.0,4.0,100,0.00,CLR,CLR,0.01,WeatherDisplay:10.37,2013-03-10 13:50:00,
2013-03-10 09:56:00,37.7,37.7,30.40,NNW,338,1.9,3.5,100,0.01,CLR,,0.01,WeatherDisplay:10.37,2013-03-10 13:56:00,
2013-03-10 10:01:00,38.2,38.2,30.41,North,0,2.2,3.5,100,0.01,CLR,,0.01,WeatherDisplay:10.37,2013-03-10 14:01:00,
2013-03-10 10:06:00,38.3,38.3,30.40,North,0,2.3,3.5,100,0.01,CLR,,0.01,WeatherDisplay:10.37,2013-03-10 14:06:00,
2013-03-10 10:11:00,38.9,38.9,30.41,North,0,1.0,2.3,100,0.01,CLR,,0.01,WeatherDisplay:10.37,2013-03-10 14:11:00,
2013-03-10 10:17:00,39.5,39.5,30.40,North,0,1.9,3.0,100,0.01,CLR,,0.01,WeatherDisplay:10.37,2013-03-10 14:17:00,
2013-03-10 10:22:00,40.1,40.1,30.40,NNE,17,1.9,3.5,100,0.00,,,0.01,WeatherDisplay:10.37,2013-03-10 14:22:00,
2013-03-10 10:27:00,40.6,40.6,30.40,North,4,2.3,4.6,100,0.00,,,0.01,WeatherDisplay:10.37,2013-03-10 14:27:00,
2013-03-10 10:32:00,41.2,41.2,30.40,North,3,1.2,3.0,100,0.00,,,0.01,WeatherDisplay:10.37,2013-03-10 14:32:00,
2013-03-10 10:37:00,41.5,40.4,30.40,NE,51,1.4,3.0,96,0.00,CLR,,0.01,WeatherDisplay:10.37,2013-03-10 14:37:00,
2013-03-10 10:43:00,41.5,38.5,30.40,NNE,19,3.6,5.0,89,0.00,CLR,,0.01,WeatherDisplay:10.37,2013-03-10 14:43:00,
2013-03-10 10:48:00,41.8,36.7,30.40,NNE,15,3.6,4.0,82,0.00,CLR,,0.01,WeatherDisplay:10.37,2013-03-10 14:48:00,
2013-03-10 10:53:00,42.2,36.8,30.41,North,0,2.1,3.5,81,0.00,CLR,,0.01,WeatherDisplay:10.37,2013-03-10 14:53:00,
2013-03-10 10:59:00,42.6,36.2,30.40,NE,36,3.1,5.0,78,0.00,CLR,,0.01,WeatherDisplay:10.37,2013-03-10 14:59:00,
2013-03-10 11:04:00,43.0,36.3,30.40,NNE,19,0.8,6.0,77,0.00,CLR,,0.01,WeatherDisplay:10.37,2013-03-10 15:04:00,
2013-03-10 11:09:00,43.3,35.9,30.41,NE,36,2.8,5.0,75,0.00,CLR,,0.01,WeatherDisplay:10.37,2013-03-10 15:09:00,
2013-03-10 11:14:00,43.7,36.0,30.41,NNE,25,2.0,4.6,74,0.00,CLR,,0.01,WeatherDisplay:10.37,2013-03-10 15:14:00,
2013-03-10 11:19:00,44.5,39.3,30.41,North,2,1.7,3.5,82,0.00,CLR,,0.01,WeatherDisplay:10.37,2013-03-10 15:19:00,
2013-03-10 11:24:00,44.4,40.2,30.41,North,0,1.9,6.9,85,0.00,CLR,,0.01,WeatherDisplay:10.37,2013-03-10 15:24:00,
2013-03-10 11:29:00,43.6,40.0,30.41,NNE,19,3.7,6.0,87,0.00,CLR,,0.01,WeatherDisplay:10.37,2013-03-10 15:29:00,
2013-03-10 11:35:00,42.9,39.9,30.40,NE,35,4.6,6.9,89,0.00,CLR,,0.01,WeatherDisplay:10.37,2013-03-10 15:35:00,
2013-03-10 11:40:00,42.5,39.8,30.39,NNE,22,2.8,5.0,90,0.00,CLR,,0.01,WeatherDisplay:10.37,2013-03-10 15:40:00,
2013-03-10 11:45:00,42.6,40.4,30.39,ENE,74,1.2,3.5,92,0.00,CLR,,0.01,WeatherDisplay:10.37,2013-03-10 15:45:00,
2013-03-10 11:50:00,43.5,41.6,30.40,ENE,74,0.4,2.3,93,0.00,CLR,,0.01,WeatherDisplay:10.37,2013-03-10 15:50:00,
2013-03-10 11:55:00,44.3,42.4,30.40,NE,47,1.0,5.0,93,0.00,CLR,CLR,0.01,WeatherDisplay:10.37,2013-03-10 15:55:00,
2013-03-10 12:00:00,44.8,42.3,30.40,NNE,26,1.0,3.0,91,0.00,CLR,CLR,0.01,WeatherDisplay:10.37,2013-03-10 16:00:00,
2013-03-10 12:05:00,44.9,42.1,30.40,NE,40,3.0,7.0,90,0.00,CLR,CLR,0.01,WeatherDisplay:10.37,2013-03-10 16:05:00,
2013-03-10 12:10:00,45.1,42.9,30.40,ENE,57,0.4,2.3,92,0.00,CLR,,0.01,WeatherDisplay:10.37,2013-03-10 16:10:00,
2013-03-10 12:15:00,45.4,43.0,30.40,NNE,33,2.0,6.0,91,0.00,CLR,CLR,0.01,WeatherDisplay:10.37,2013-03-10 16:15:00,
2013-03-10 12:20:00,45.5,43.0,30.39,NE,37,2.0,5.0,91,0.00,CLR,CLR,0.01,WeatherDisplay:10.37,2013-03-10 16:20:00,
2013-03-10 12:26:00,44.7,41.9,30.39,ENE,59,2.1,5.8,90,0.00,CLR,,0.01,WeatherDisplay:10.37,2013-03-10 16:26:00,
2013-03-10 12:31:00,45.6,43.7,30.39,East,101,2.5,4.0,93,0.00,CLR,,0.01,WeatherDisplay:10.37,2013-03-10 16:31:00,
2013-03-10 12:36:00,46.0,43.5,30.39,ESE,122,3.8,6.0,91,0.00,CLR,,0.01,WeatherDisplay:10.37,2013-03-10 16:36:00,
2013-03-10 12:41:00,46.2,43.1,30.38,East,99,3.2,4.6,89,0.00,CLR,,0.01,WeatherDisplay:10.37,2013-03-10 16:41:00,
2013-03-10 12:47:00,46.1,43.0,30.38,NNE,13,1.1,3.5,89,0.00,CLR,,0.01,WeatherDisplay:10.37,2013-03-10 16:47:00,
2013-03-10 12:52:00,46.6,43.8,30.38,ESE,106,2.0,3.5,90,0.00,CLR,,0.01,WeatherDisplay:10.37,2013-03-10 16:52:00,
2013-03-10 12:57:00,46.5,42.8,30.38,ESE,106,2.0,4.0,87,0.00,CLR,,0.01,WeatherDisplay:10.37,2013-03-10 16:57:00,
2013-03-10 13:02:00,46.1,42.4,30.39,SE,128,3.7,8.1,87,0.00,CLR,,0.01,WeatherDisplay:10.37,2013-03-10 17:02:00,
2013-03-10 13:07:00,46.4,43.6,30.38,SSE,158,3.8,7.0,90,0.00,CLR,,0.01,WeatherDisplay:10.37,2013-03-10 17:07:00,
2013-03-10 13:12:00,46.4,43.0,30.38,SE,145,5.9,9.2,88,0.00,CLR,,0.01,WeatherDisplay:10.37,2013-03-10 17:12:00,
2013-03-10 13:18:00,46.5,43.1,30.38,East,90,6.0,9.0,88,0.00,CLR,,0.01,WeatherDisplay:10.37,2013-03-10 17:18:00,
2013-03-10 13:23:00,46.6,42.9,30.38,East,95,6.8,10.4,87,0.00,CLR,,0.01,WeatherDisplay:10.37,2013-03-10 17:23:00,
2013-03-10 13:28:00,45.8,37.3,30.37,East,95,6.0,11.5,72,0.00,CLR,,0.01,WeatherDisplay:10.37,2013-03-10 17:28:00,
2013-03-10 13:33:00,45.4,40.5,30.37,East,87,5.3,9.2,83,0.00,CLR,,0.01,WeatherDisplay:10.37,2013-03-10 17:33:00,
2013-03-10 13:38:00,44.7,37.6,30.37,East,94,4.5,6.9,76,0.00,CLR,,0.01,WeatherDisplay:10.37,2013-03-10 17:38:00,
2013-03-10 13:44:00,44.2,36.4,30.37,ESE,120,5.3,9.2,74,0.00,CLR,,0.01,WeatherDisplay:10.37,2013-03-10 17:44:00,
2013-03-10 13:49:00,44.2,35.4,30.37,ESE,112,5.0,9.2,71,0.00,CLR,,0.01,WeatherDisplay:10.37,2013-03-10 17:49:00,
2013-03-10 13:54:00,44.2,34.7,30.37,ESE,119,2.1,5.0,69,0.00,CLR,,0.01,WeatherDisplay:10.37,2013-03-10 17:54:00,
2013-03-10 13:59:00,44.6,34.7,30.37,South,172,2.3,4.0,68,0.00,CLR,,0.01,WeatherDisplay:10.37,2013-03-10 17:59:00,
2013-03-10 14:04:00,44.8,33.4,30.37,East,95,2.8,6.9,64,0.00,CLR,,0.01,WeatherDisplay:10.37,2013-03-10 18:04:00,
2013-03-10 14:10:00,44.5,33.1,30.36,East,86,2.7,4.6,64,0.00,CLR,,0.01,WeatherDisplay:10.37,2013-03-10 18:10:00,
2013-03-10 14:15:00,44.7,34.0,30.37,East,88,3.1,5.8,66,0.00,CLR,,0.01,WeatherDisplay:10.37,2013-03-10 18:15:00,
2013-03-10 14:20:00,45.2,34.1,30.37,SE,145,1.8,6.9,65,0.00,CLR,,0.01,WeatherDisplay:10.37,2013-03-10 18:20:00,
2013-03-10 14:25:00,45.4,33.9,30.36,SSE,147,4.9,8.0,64,0.00,CLR,,0.01,WeatherDisplay:10.37,2013-03-10 18:25:00,
2013-03-10 14:30:00,45.2,33.7,30.36,SE,124,3.0,9.0,64,0.00,CLR,CLR,0.01,WeatherDisplay:10.37,2013-03-10 18:30:00,
2013-03-10 14:36:00,44.9,33.1,30.36,NE,47,1.5,3.5,63,0.00,CLR,,0.01,WeatherDisplay:10.37,2013-03-10 18:36:00,
2013-03-10 14:41:00,44.0,32.6,30.36,SE,133,3.4,5.0,64,0.00,CLR,,0.01,WeatherDisplay:10.37,2013-03-10 18:41:00,
2013-03-10 14:46:00,43.8,32.8,30.36,ESE,105,4.9,7.0,65,0.00,CLR,,0.01,WeatherDisplay:10.37,2013-03-10 18:46:00,
2013-03-10 14:51:00,43.5,32.1,30.36,SE,126,2.6,6.0,64,0.00,CLR,,0.01,WeatherDisplay:10.37,2013-03-10 18:51:00,
2013-03-10 14:57:00,43.5,32.1,30.36,East,86,1.6,5.8,64,0.00,CLR,,0.01,WeatherDisplay:10.37,2013-03-10 18:57:00,
2013-03-10 15:02:00,43.6,33.0,30.35,ESE,121,3.8,6.0,66,0.00,CLR,,0.01,WeatherDisplay:10.37,2013-03-10 19:02:00,
2013-03-10 15:07:00,43.7,33.1,30.35,SSE,147,7.0,10.0,66,0.00,CLR,,0.01,WeatherDisplay:10.37,2013-03-10 19:07:00,
2013-03-10 15:12:00,43.4,32.8,30.35,East,88,3.6,6.9,66,0.00,CLR,,0.01,WeatherDisplay:10.37,2013-03-10 19:12:00,
2013-03-10 15:18:00,43.3,32.7,30.35,SE,130,3.7,6.9,66,0.00,CLR,,0.01,WeatherDisplay:10.37,2013-03-10 19:18:00,
2013-03-10 15:23:00,43.1,32.1,30.35,East,97,1.1,4.6,65,0.00,CLR,,0.01,WeatherDisplay:10.37,2013-03-10 19:23:00,
2013-03-10 15:28:00,42.9,32.7,30.35,SE,134,2.6,4.6,67,0.00,CLR,,0.01,WeatherDisplay:10.37,2013-03-10 19:28:00,
2013-03-10 15:33:00,42.4,31.8,30.35,ESE,119,3.8,9.2,66,0.00,CLR,,0.01,WeatherDisplay:10.37,2013-03-10 19:33:00,
2013-03-10 15:38:00,42.0,31.8,30.35,East,100,5.3,10.4,67,0.00,CLR,,0.01,WeatherDisplay:10.37,2013-03-10 19:38:00,
2013-03-10 15:43:00,41.9,32.1,30.34,SSE,150,2.5,6.0,68,0.00,CLR,,0.01,WeatherDisplay:10.37,2013-03-10 19:43:00,
2013-03-10 15:49:00,42.2,32.4,30.35,SE,127,7.1,7.1,68,0.00,CLR,,0.01,WeatherDisplay:10.37,2013-03-10 19:49:00,
2013-03-10 15:54:00,42.4,32.2,30.35,SSE,158,5.8,8.1,67,0.00,CLR,,0.01,WeatherDisplay:10.37,2013-03-10 19:54:00,
2013-03-10 15:59:00,42.3,31.7,30.35,ESE,103,3.5,5.8,66,0.00,CLR,,0.01,WeatherDisplay:10.37,2013-03-10 19:59:00,
2013-03-10 16:05:00,42.0,32.2,30.35,ESE,113,3.4,5.8,68,0.00,CLR,,0.01,WeatherDisplay:10.37,2013-03-10 20:05:00,
2013-03-10 16:10:00,42.0,32.2,30.35,ESE,121,2.3,3.5,68,0.00,CLR,,0.01,WeatherDisplay:10.37,2013-03-10 20:10:00,
2013-03-10 16:15:00,42.1,32.3,30.35,SE,126,2.5,5.0,68,0.00,CLR,,0.01,WeatherDisplay:10.37,2013-03-10 20:15:00,
2013-03-10 16:20:00,41.9,32.5,30.35,SSE,159,4.6,5.0,69,0.00,CLR,,0.01,WeatherDisplay:10.37,2013-03-10 20:20:00,
2013-03-10 16:25:00,42.0,32.2,30.34,ESE,122,5.0,7.0,68,0.00,CLR,CLR,0.01,WeatherDisplay:10.37,2013-03-10 20:25:00,
2013-03-10 16:30:00,41.7,32.3,30.34,SE,124,5.0,8.0,69,0.00,CLR,CLR,0.01,WeatherDisplay:10.37,2013-03-10 20:30:00,
2013-03-10 16:36:00,41.5,32.1,30.35,ESE,109,6.4,10.4,69,0.00,CLR,,0.01,WeatherDisplay:10.37,2013-03-10 20:36:00,
2013-03-10 16:41:00,41.0,32.0,30.34,SE,125,3.4,5.0,70,0.00,CLR,,0.01,WeatherDisplay:10.37,2013-03-10 20:41:00,
2013-03-10 16:47:00,41.0,32.0,30.34,SE,141,3.2,6.9,70,0.00,CLR,,0.01,WeatherDisplay:10.37,2013-03-10 20:47:00,
2013-03-10 16:52:00,40.5,31.8,30.34,ESE,120,1.5,5.8,71,0.00,CLR,,0.01,WeatherDisplay:10.37,2013-03-10 20:52:00,
2013-03-10 16:57:00,40.3,32.0,30.34,SE,137,2.7,6.0,72,0.00,CLR,,0.01,WeatherDisplay:10.37,2013-03-10 20:57:00,
2013-03-10 17:02:00,40.4,32.1,30.35,ESE,107,3.2,5.8,72,0.00,CLR,,0.01,WeatherDisplay:10.37,2013-03-10 21:02:00,
2013-03-10 17:08:00,40.3,32.0,30.35,East,92,4.5,8.0,72,0.00,CLR,,0.01,WeatherDisplay:10.37,2013-03-10 21:08:00,
2013-03-10 17:13:00,40.1,31.8,30.34,ESE,123,4.3,5.0,72,0.00,CLR,,0.01,WeatherDisplay:10.37,2013-03-10 21:13:00,
2013-03-10 17:18:00,40.0,31.7,30.34,ESE,117,3.8,6.9,72,0.00,CLR,,0.01,WeatherDisplay:10.37,2013-03-10 21:18:00,
2013-03-10 17:23:00,40.0,32.0,30.34,ESE,102,1.3,5.0,73,0.00,CLR,,0.01,WeatherDisplay:10.37,2013-03-10 21:23:00,
2013-03-10 17:28:00,39.9,31.9,30.34,ESE,119,4.9,7.0,73,0.00,CLR,,0.01,WeatherDisplay:10.37,2013-03-10 21:28:00,
2013-03-10 17:33:00,39.5,31.6,30.34,ESE,105,4.4,8.0,73,0.00,CLR,,0.01,WeatherDisplay:10.37,2013-03-10 21:33:00,
2013-03-10 17:38:00,39.1,31.5,30.34,East,100,3.6,6.9,74,0.00,CLR,,0.01,WeatherDisplay:10.37,2013-03-10 21:38:00,
2013-03-10 17:44:00,38.7,31.1,30.34,NE,50,4.5,6.9,74,0.00,CLR,,0.01,WeatherDisplay:10.37,2013-03-10 21:44:00,
2013-03-10 17:49:00,38.4,31.2,30.34,East,91,5.7,8.1,75,0.00,CLR,,0.01,WeatherDisplay:10.37,2013-03-10 21:49:00,
2013-03-10 17:54:00,38.2,31.3,30.33,ESE,107,4.7,8.1,76,0.00,CLR,,0.01,WeatherDisplay:10.37,2013-03-10 21:54:00,
2013-03-10 18:00:00,37.9,31.0,30.33,SE,126,2.7,6.9,76,0.00,CLR,,0.01,WeatherDisplay:10.37,2013-03-10 22:00:00,
2013-03-10 18:05:00,37.6,31.0,30.33,ESE,108,2.0,4.0,77,0.00,CLR,,0.01,WeatherDisplay:10.37,2013-03-10 22:05:00,
2013-03-10 18:10:00,37.3,31.1,30.34,SE,127,3.1,6.0,78,0.00,CLR,,0.01,WeatherDisplay:10.37,2013-03-10 22:10:00,
2013-03-10 18:15:00,37.0,31.1,30.34,ESE,102,0.1,3.5,79,0.00,CLR,,0.01,WeatherDisplay:10.37,2013-03-10 22:15:00,
2013-03-10 18:20:00,36.8,30.9,30.34,ESE,106,4.2,5.8,79,0.00,CLR,,0.01,WeatherDisplay:10.37,2013-03-10 22:20:00,
2013-03-10 18:25:00,36.5,30.9,30.34,ESE,103,5.0,8.0,80,0.00,CLR,CLR,0.01,WeatherDisplay:10.37,2013-03-10 22:25:00,
2013-03-10 18:30:00,36.2,30.7,30.34,East,100,1.0,6.0,80,0.00,CLR,CLR,0.01,WeatherDisplay:10.37,2013-03-10 22:30:00,
2013-03-10 18:35:00,35.9,30.6,30.34,East,97,4.0,5.8,81,0.00,CLR,,0.01,WeatherDisplay:10.37,2013-03-10 22:35:00,
2013-03-10 18:40:00,35.7,30.5,30.34,ESE,105,2.0,7.0,81,0.00,CLR,CLR,0.01,WeatherDisplay:10.37,2013-03-10 22:40:00,
2013-03-10 18:45:00,35.6,30.9,30.34,ESE,109,2.9,6.9,83,0.00,CLR,,0.01,WeatherDisplay:10.37,2013-03-10 22:45:00,
2013-03-10 18:50:00,35.4,31.0,30.34,ESE,107,2.0,6.0,84,0.00,CLR,CLR,0.01,WeatherDisplay:10.37,2013-03-10 22:50:00,
2013-03-10 18:55:00,35.1,30.8,30.33,East,96,1.9,4.6,84,0.00,CLR,,0.01,WeatherDisplay:10.37,2013-03-10 22:55:00,
2013-03-10 19:01:00,35.0,30.7,30.34,ESE,111,2.3,3.5,84,0.00,CLR,,0.01,WeatherDisplay:10.37,2013-03-10 23:01:00,
2013-03-10 19:06:00,34.8,30.8,30.34,SE,129,1.5,3.5,85,0.00,CLR,,0.01,WeatherDisplay:10.37,2013-03-10 23:06:00,
2013-03-10 19:11:00,34.6,30.6,30.34,East,91,2.2,4.0,85,0.00,CLR,,0.01,WeatherDisplay:10.37,2013-03-10 23:11:00,
2013-03-10 19:16:00,34.5,30.5,30.34,East,97,2.4,5.8,85,0.00,CLR,,0.01,WeatherDisplay:10.37,2013-03-10 23:16:00,
2013-03-10 19:22:00,34.4,30.6,30.34,East,96,1.8,3.5,86,0.00,CLR,,0.01,WeatherDisplay:10.37,2013-03-10 23:22:00,
2013-03-10 19:27:00,34.4,30.6,30.34,ESE,105,3.3,5.0,86,0.00,CLR,,0.01,WeatherDisplay:10.37,2013-03-10 23:27:00,
2013-03-10 19:32:00,34.4,30.6,30.34,ESE,118,0.3,3.0,86,0.00,CLR,,0.01,WeatherDisplay:10.37,2013-03-10 23:32:00,
2013-03-10 19:38:00,34.5,30.7,30.34,ESE,108,2.8,5.8,86,0.00,CLR,,0.01,WeatherDisplay:10.37,2013-03-10 23:38:00,
2013-03-10 19:43:00,34.6,30.8,30.34,ESE,108,2.4,4.6,86,0.00,CLR,,0.01,WeatherDisplay:10.37,2013-03-10 23:43:00,
2013-03-10 19:48:00,34.6,30.8,30.34,ESE,104,2.7,5.0,86,0.00,CLR,,0.01,WeatherDisplay:10.37,2013-03-10 23:48:00,
2013-03-10 19:53:00,34.5,31.0,30.34,East,100,3.7,6.9,87,0.00,CLR,,0.01,WeatherDisplay:10.37,2013-03-10 23:53:00,
2013-03-10 19:58:00,34.6,31.1,30.33,ESE,119,3.3,5.0,87,0.00,CLR,,0.01,WeatherDisplay:10.37,2013-03-10 23:58:00,
2013-03-10 20:03:00,34.5,31.0,30.33,ESE,104,4.4,5.0,87,0.00,CLR,,0.01,WeatherDisplay:10.37,2013-03-11 00:03:00,
2013-03-10 20:08:00,34.5,31.0,30.34,ESE,102,4.6,8.1,87,0.00,CLR,,0.01,WeatherDisplay:10.37,2013-03-11 00:08:00,
2013-03-10 20:14:00,34.5,31.0,30.34,SE,132,2.6,4.6,87,0.00,CLR,,0.01,WeatherDisplay:10.37,2013-03-11 00:14:00,
2013-03-10 20:19:00,34.3,30.8,30.34,ESE,112,2.9,5.8,87,0.00,CLR,,0.01,WeatherDisplay:10.37,2013-03-11 00:19:00,
2013-03-10 20:24:00,34.2,30.7,30.34,ESE,116,2.7,7.0,87,0.00,CLR,,0.01,WeatherDisplay:10.37,2013-03-11 00:24:00,
2013-03-10 20:29:00,34.2,31.0,30.34,ESE,120,3.3,6.9,88,0.00,CLR,,0.01,WeatherDisplay:10.37,2013-03-11 00:29:00,
2013-03-10 20:34:00,34.0,30.5,30.34,ESE,120,1.5,3.5,87,0.00,CLR,,0.01,WeatherDisplay:10.37,2013-03-11 00:34:00,
2013-03-10 20:40:00,33.9,30.7,30.35,ESE,120,0.1,1.2,88,0.00,CLR,,0.01,WeatherDisplay:10.37,2013-03-11 00:40:00,
2013-03-10 20:45:00,33.8,30.6,30.34,ESE,120,1.8,4.0,88,0.00,CLR,,0.01,WeatherDisplay:10.37,2013-03-11 00:45:00,
2013-03-10 20:50:00,33.7,30.5,30.34,SE,128,2.1,4.0,88,0.00,CLR,,0.01,WeatherDisplay:10.37,2013-03-11 00:50:00,
2013-03-10 20:55:00,33.6,30.4,30.34,SE,132,0.0,4.0,88,0.00,CLR,CLR,0.01,WeatherDisplay:10.37,2013-03-11 00:55:00,
2013-03-10 21:00:00,33.5,30.3,30.34,SE,128,0.0,2.0,88,0.00,CLR,CLR,0.01,WeatherDisplay:10.37,2013-03-11 01:00:00,
2013-03-10 21:05:00,33.4,30.5,30.34,SE,130,2.0,4.0,89,0.00,CLR,CLR,0.01,WeatherDisplay:10.37,2013-03-11 01:05:00,
2013-03-10 21:10:00,33.5,30.9,30.34,SE,131,1.0,3.0,90,0.00,CLR,CLR,0.01,WeatherDisplay:10.37,2013-03-11 01:10:00,
2013-03-10 21:15:00,33.7,31.1,30.34,ESE,117,1.0,4.0,90,0.00,CLR,CLR,0.01,WeatherDisplay:10.37,2013-03-11 01:15:00,
2013-03-10 21:20:00,33.9,31.0,30.34,ESE,112,2.0,6.0,89,0.00,CLR,CLR,0.01,WeatherDisplay:10.37,2013-03-11 01:20:00,
2013-03-10 21:25:00,34.1,31.2,30.34,ESE,122,2.0,6.0,89,0.00,CLR,CLR,0.01,WeatherDisplay:10.37,2013-03-11 01:25:00,
2013-03-10 21:30:00,34.3,31.4,30.34,SE,127,1.0,4.0,89,0.00,CLR,CLR,0.01,WeatherDisplay:10.37,2013-03-11 01:30:00,
2013-03-10 21:36:00,34.4,31.2,30.33,SE,131,3.5,5.0,88,0.00,CLR,,0.01,WeatherDisplay:10.37,2013-03-11 01:36:00,
2013-03-10 21:41:00,34.4,31.2,30.33,ESE,109,4.0,6.9,88,0.00,CLR,,0.01,WeatherDisplay:10.37,2013-03-11 01:41:00,
2013-03-10 21:46:00,34.5,31.3,30.32,SSE,152,0.7,3.5,88,0.00,CLR,,0.01,WeatherDisplay:10.37,2013-03-11 01:46:00,
2013-03-10 21:51:00,34.5,31.3,30.33,SE,129,1.1,5.0,88,0.00,CLR,,0.01,WeatherDisplay:10.37,2013-03-11 01:51:00,
2013-03-10 21:56:00,34.5,31.3,30.33,SSE,166,4.2,7.0,88,0.00,CLR,,0.01,WeatherDisplay:10.37,2013-03-11 01:56:00,
2013-03-10 22:02:00,34.5,31.3,30.32,SE,132,2.8,5.8,88,0.00,CLR,,0.01,WeatherDisplay:10.37,2013-03-11 02:02:00,
2013-03-10 22:07:00,34.6,31.4,30.32,SE,141,3.1,7.0,88,0.00,CLR,,0.01,WeatherDisplay:10.37,2013-03-11 02:07:00,
2013-03-10 22:12:00,34.7,31.5,30.32,ESE,117,1.5,6.0,88,0.00,CLR,,0.01,WeatherDisplay:10.37,2013-03-11 02:12:00,
2013-03-10 22:17:00,34.7,31.5,30.32,ESE,113,3.1,6.0,88,0.00,CLR,,0.01,WeatherDisplay:10.37,2013-03-11 02:17:00,
2013-03-10 22:22:00,34.8,31.6,30.32,ESE,119,2.9,5.0,88,0.00,CLR,,0.01,WeatherDisplay:10.37,2013-03-11 02:22:00,
2013-03-10 22:28:00,34.8,31.6,30.33,SE,140,2.7,4.6,88,0.00,CLR,,0.01,WeatherDisplay:10.37,2013-03-11 02:28:00,
2013-03-10 22:33:00,34.8,31.6,30.33,SSE,160,1.5,5.0,88,0.00,CLR,,0.01,WeatherDisplay:10.37,2013-03-11 02:33:00,
2013-03-10 22:38:00,34.8,31.6,30.32,ESE,120,3.3,4.6,88,0.00,CLR,,0.01,WeatherDisplay:10.37,2013-03-11 02:38:00,
2013-03-10 22:43:00,34.8,31.3,30.32,ESE,111,2.4,7.0,87,0.00,CLR,,0.01,WeatherDisplay:10.37,2013-03-11 02:43:00,
2013-03-10 22:48:00,34.7,31.5,30.32,SE,126,3.9,6.9,88,0.00,CLR,,0.01,WeatherDisplay:10.37,2013-03-11 02:48:00,
2013-03-10 22:54:00,34.8,31.6,30.31,SE,125,3.7,9.2,88,0.00,CLR,,0.01,WeatherDisplay:10.37,2013-03-11 02:54:00,
2013-03-10 22:59:00,34.9,31.4,30.32,ESE,121,3.8,6.0,87,0.00,CLR,,0.01,WeatherDisplay:10.37,2013-03-11 02:59:00,
2013-03-10 23:04:00,35.0,31.5,30.32,South,169,3.5,8.0,87,0.00,CLR,,0.01,WeatherDisplay:10.37,2013-03-11 03:04:00,
2013-03-10 23:09:00,35.1,31.3,30.31,South,170,3.6,6.0,86,0.00,CLR,,0.01,WeatherDisplay:10.37,2013-03-11 03:09:00,
2013-03-10 23:14:00,35.2,31.4,30.32,SE,134,3.4,5.8,86,0.00,CLR,,0.01,WeatherDisplay:10.37,2013-03-11 03:14:00,
2013-03-10 23:19:00,35.2,31.4,30.32,SE,127,1.6,3.5,86,0.00,CLR,,0.01,WeatherDisplay:10.37,2013-03-11 03:19:00,
2013-03-10 23:24:00,35.3,31.5,30.32,South,174,1.9,6.9,86,0.00,CLR,,0.01,WeatherDisplay:10.37,2013-03-11 03:24:00,
2013-03-10 23:29:00,35.3,31.5,30.32,South,171,1.2,3.5,86,0.00,CLR,,0.01,WeatherDisplay:10.37,2013-03-11 03:29:00,
2013-03-10 23:35:00,35.4,31.6,30.32,SSE,168,2.1,5.0,86,0.00,CLR,,0.01,WeatherDisplay:10.37,2013-03-11 03:35:00,
2013-03-10 23:40:00,35.4,31.6,30.32,SSW,200,2.4,3.5,86,0.00,CLR,,0.01,WeatherDisplay:10.37,2013-03-11 03:40:00,
2013-03-10 23:45:00,35.5,31.7,30.32,SSW,210,2.0,4.6,86,0.00,CLR,,0.01,WeatherDisplay:10.37,2013-03-11 03:45:00,
2013-03-10 23:50:00,35.5,31.7,30.32,SSW,204,2.3,4.0,86,0.00,CLR,,0.01,WeatherDisplay:10.37,2013-03-11 03:50:00,
2013-03-10 23:55:00,35.6,32.1,30.32,South,182,1.6,3.5,87,0.00,CLR,,0.01,WeatherDisplay:10.37,2013-03-11 03:55:00,